Waarnemingen

Advertentie
Mijn weer
Herstmonceux, Groot Brittannië (3882): temperatuur & dauwpunt: 17.05.2018 00:00:00 - 23.05.2018 00:00:00 (BST)Herstmonceux, Groot Brittannië (3882): temperatuur -20cm & temperatuur -100cm: 17.05.2018 00:00:00 - 23.05.2018 00:00:00 (BST)Herstmonceux, Groot Brittannië (3882): windsnelheid: 17.05.2018 00:00:00 - 23.05.2018 00:00:00 (BST)Herstmonceux, Groot Brittannië (3882): windrichting: 17.05.2018 00:00:00 - 23.05.2018 00:00:00 (BST)Herstmonceux, Groot Brittannië (3882): luchtdruk: 17.05.2018 00:00:00 - 23.05.2018 00:00:00 (BST)Herstmonceux, Groot Brittannië (3882): zicht: 17.05.2018 00:00:00 - 23.05.2018 00:00:00 (BST)Herstmonceux, Groot Brittannië (3882): Zonneschijnduur: 17.05.2018 00:00:00 - 23.05.2018 00:00:00 (BST)Herstmonceux, Groot Brittannië (3882): neerslag: 17.05.2018 00:00:00 - 23.05.2018 00:00:00 (BST)
Datum & Tijd tt [°C] td [°C] tt -20cm [°C] tt -100cm [°C] ff [km/u] ff [kn] dd ppp [hPa] vv [km] sd [min] rr [mm]
23.05.2018 00:00:00 12,5 9,5 - - 13 7 NNO 1019,4 14 0 0,0
22.05.2018 23:00:00 13,9 10,4 - - 11 6 NNO 1018,9 18 0 0,0
22.05.2018 22:00:00 14,0 11,8 - - 4 2 NO 1018,6 18 0 0,0
22.05.2018 21:00:00 14,4 11,5 - - 2 1 NO 1017,8 12 18 0,0
22.05.2018 20:00:00 17,8 12,1 - - 4 2 WZW 1017,1 19 60 0,0
22.05.2018 19:00:00 20,8 14,4 - - 5 3 ONO 1016,5 24 48 0,0
22.05.2018 18:00:00 17,8 12,4 - - 5 3 NO 1016,0 35 0 0,2
22.05.2018 17:00:00 21,2 10,6 - - 15 8 NNO 1015,3 30 36 0,0
22.05.2018 16:00:00 23,3 12,2 - - 9 5 NNO 1015,1 23 54 0,0
22.05.2018 15:00:00 21,6 12,5 - - 13 7 NNO 1015,4 24 12 0,0
22.05.2018 14:00:00 21,0 11,7 - - 13 7 NNO 1015,4 29 54 0,0
22.05.2018 13:00:00 19,6 12,3 - - 11 6 NNO 1015,3 29 12 0,0
22.05.2018 12:00:00 16,8 10,6 - - 9 5 NNO 1015,3 30 18 0,0
22.05.2018 11:00:00 17,4 10,8 - - 11 6 NNO 1015,0 26 36 0,0
22.05.2018 10:00:00 16,0 10,0 15,9 14,0 11 6 NNO 1014,8 22 0 0,0
22.05.2018 09:00:00 14,7 9,1 - - 9 5 NNO 1014,6 30 0 0,0
22.05.2018 08:00:00 13,8 8,4 - - 13 7 NNO 1014,4 23 0 0,0
22.05.2018 07:00:00 13,6 9,0 - - 15 8 NNO 1013,8 24 0 0,0
22.05.2018 06:00:00 13,7 9,2 - - 8 4 N 1013,5 35 0 0,0
22.05.2018 05:00:00 12,8 9,3 - - 8 4 NNW 1013,0 22 0 0,0
22.05.2018 04:00:00 14,0 9,3 - - 8 4 N 1012,9 35 0 0,0
22.05.2018 03:00:00 13,7 9,4 - - 5 3 NNW 1013,1 25 0 0,0
22.05.2018 02:00:00 13,9 9,2 - - 9 5 N 1013,2 26 0 0,0
22.05.2018 01:00:00 14,1 8,0 - - 4 2 NO 1013,4 30 - 0,0
22.05.2018 00:00:00 13,7 7,8 - - 5 3 NNO 1013,7 26 0 0,0
21.05.2018 23:00:00 14,4 7,7 - - 5 3 NNO 1013,9 35 0 0,0
21.05.2018 22:00:00 14,8 8,3 - - 5 3 NNO 1014,1 30 0 0,0
21.05.2018 21:00:00 16,3 9,7 - - 5 3 NNO 1013,8 30 0 0,0
21.05.2018 20:00:00 18,3 9,2 - - 4 2 NO 1013,6 35 36 0,0
21.05.2018 19:00:00 20,9 10,1 - - 8 4 ONO 1013,4 35 54 0,0
21.05.2018 18:00:00 21,3 8,7 - - 11 6 ONO 1013,3 40 54 0,0
21.05.2018 17:00:00 22,3 10,8 - - 13 7 O 1013,2 24 54 0,0
21.05.2018 16:00:00 22,3 11,5 - - 11 6 ONO 1013,6 35 24 0,0
21.05.2018 15:00:00 20,7 10,9 - - 11 6 NNO 1014,1 24 42 0,0
21.05.2018 14:00:00 19,0 11,0 - - 13 7 NNO 1014,6 26 0 0,0
21.05.2018 13:00:00 18,6 11,5 - - 8 4 NNO 1014,8 30 0 0,0
21.05.2018 12:00:00 18,6 12,8 - - 5 3 NNO 1015,4 21 0 0,0
21.05.2018 11:00:00 17,1 12,3 - - 5 3 ONO 1015,9 14 0 0,0
21.05.2018 10:00:00 15,5 11,6 15,7 13,9 9 5 ONO 1016,1 11 0 0,0
21.05.2018 09:00:00 14,7 10,9 - - 9 5 ONO 1016,3 11 12 0,0
21.05.2018 08:00:00 14,3 11,2 - - 8 4 ONO 1016,5 10 36 0,0
21.05.2018 07:00:00 12,2 10,6 - - 5 3 NO 1016,5 6 0 0,0
21.05.2018 06:00:00 9,9 9,0 - - 8 4 NO 1016,7 3,8 0 0,0
21.05.2018 05:00:00 10,0 8,8 - - 9 5 ONO 1016,9 4,3 0 0,0
21.05.2018 04:00:00 9,9 7,8 - - 9 5 NO 1017,4 6 0 0,0
21.05.2018 03:00:00 9,5 7,4 - - 8 4 NNO 1017,7 7 0 0,0
21.05.2018 02:00:00 9,3 7,1 - - 5 3 NO 1018,6 7 0 0,0
21.05.2018 01:00:00 9,7 7,5 - - 8 4 ONO 1019,0 7 - 0,0
21.05.2018 00:00:00 9,3 7,4 - - 5 3 ONO 1019,7 5 0 0,0
20.05.2018 23:00:00 10,6 8,5 - - 9 5 ONO 1019,7 7 0 0,0
20.05.2018 22:00:00 11,8 8,9 - - 5 3 NO 1020,0 8 0 0,0
20.05.2018 21:00:00 14,2 10,4 - - 9 5 O 1020,0 13 18 0,0
20.05.2018 20:00:00 17,1 11,3 - - 8 4 O 1019,5 21 60 0,0
20.05.2018 19:00:00 18,7 11,8 - - 11 6 O 1019,3 14 60 0,0
20.05.2018 18:00:00 19,6 11,6 - - 9 5 OZO 1019,4 24 42 0,0
20.05.2018 17:00:00 20,0 10,1 - - 8 4 O 1019,9 20 54 0,0
20.05.2018 16:00:00 19,7 10,4 - - 8 4 OZO 1020,6 22 60 0,0
20.05.2018 15:00:00 19,2 11,4 - - 9 5 OZO 1021,4 23 60 0,0
20.05.2018 14:00:00 17,1 10,7 - - 8 4 NO 1022,1 10 48 0,0
20.05.2018 13:00:00 15,1 10,7 - - 8 4 O 1022,9 10 12 0,0
20.05.2018 12:00:00 12,7 9,6 - - 9 5 O 1023,3 8 0 0,0
20.05.2018 11:00:00 11,0 9,3 - - 8 4 ONO 1023,6 5 0 0,0
20.05.2018 10:00:00 10,0 9,0 15,5 13,7 8 4 O 1024,0 4,1 0 0,0
20.05.2018 09:00:00 9,4 8,9 - - 5 3 O 1023,9 2,2 0 0,0
20.05.2018 08:00:00 8,6 8,4 - - 5 3 ONO 1024,0 1,5 0 0,0
20.05.2018 07:00:00 8,3 8,1 - - 4 2 ONO 1023,6 1,1 0 0,0
20.05.2018 06:00:00 8,0 7,7 - - 4 2 NO 1023,3 0,6 0 0,0
20.05.2018 05:00:00 8,0 7,7 - - 4 2 O 1023,0 2,0 0 0,0
20.05.2018 04:00:00 7,8 7,6 - - 8 4 O 1023,4 2,6 0 0,0
20.05.2018 03:00:00 8,0 7,9 - - 4 2 O 1023,6 2,5 0 0,0
20.05.2018 02:00:00 8,1 7,9 - - 5 3 ONO 1023,9 0,5 0 0,0
20.05.2018 01:00:00 7,4 7,2 - - 4 2 O 1024,3 2,6 - 0,0
20.05.2018 00:00:00 7,1 6,6 - - 4 2 ONO 1024,5 5 0 0,0
19.05.2018 23:00:00 7,8 7,2 - - 4 2 NO 1024,4 10 0 0,0
19.05.2018 22:00:00 7,8 6,5 - - 0 0 N 1023,9 7 0 0,0
19.05.2018 21:00:00 9,6 7,4 - - 2 1 ZZO 1023,5 16 24 0,0
19.05.2018 20:00:00 11,3 7,7 - - 8 4 Z 1023,0 25 60 0,0
19.05.2018 19:00:00 13,3 8,2 - - 4 2 Z 1023,1 24 60 0,0
19.05.2018 18:00:00 13,5 8,4 - - 8 4 Z 1023,4 25 60 0,0
19.05.2018 17:00:00 13,8 8,2 - - 9 5 Z 1023,6 30 60 0,0
19.05.2018 16:00:00 14,3 8,9 - - 9 5 Z 1023,9 28 60 0,0
19.05.2018 15:00:00 14,2 8,9 - - 13 7 Z 1024,0 16 60 0,0
19.05.2018 14:00:00 14,5 8,9 - - 9 5 Z 1024,2 17 60 0,0
19.05.2018 13:00:00 14,8 9,5 - - 11 6 Z 1024,5 18 60 0,0
19.05.2018 12:00:00 13,9 8,9 - - 9 5 Z 1024,9 14 60 0,0
19.05.2018 11:00:00 13,7 8,8 - - 8 4 ZZO 1024,9 13 42 0,0
19.05.2018 10:00:00 12,2 7,3 15,0 13,7 4 2 WZW 1025,0 18 36 0,0
19.05.2018 09:00:00 11,8 9,2 - - 5 3 O 1024,9 17 60 0,0
19.05.2018 08:00:00 9,6 9,4 - - 4 2 O 1024,7 10 54 0,0
19.05.2018 07:00:00 6,3 6,3 - - 2 1 ONO 1024,4 9 0 0,0
19.05.2018 06:00:00 3,9 3,7 - - 4 2 ONO 1024,4 9 0 0,0
19.05.2018 05:00:00 3,6 3,1 - - 4 2 O 1024,2 11 0 0,0
19.05.2018 04:00:00 5,5 5,3 - - 4 2 NNO 1024,2 6 0 0,0
19.05.2018 03:00:00 5,5 5,2 - - 2 1 NNO 1024,4 6 0 0,0
19.05.2018 02:00:00 5,7 5,3 - - 4 2 NNO 1024,7 8 0 0,0
19.05.2018 01:00:00 5,9 5,3 - - 2 1 NO 1024,8 7 - 0,0
19.05.2018 00:00:00 6,6 5,9 - - 4 2 ONO 1025,0 9 0 0,0
18.05.2018 23:00:00 7,3 6,5 - - 0 0 N 1025,1 11 0 0,0
18.05.2018 22:00:00 7,7 6,5 - - 2 1 ZZW 1025,1 10 0 0,0
18.05.2018 21:00:00 9,0 6,8 - - 4 2 ZW 1024,9 14 0 0,0
18.05.2018 20:00:00 10,3 7,0 - - 5 3 Z 1024,7 15 6 0,0
18.05.2018 19:00:00 11,8 6,9 - - 5 3 Z 1024,6 15 60 0,0
18.05.2018 18:00:00 12,0 7,0 - - 8 4 Z 1024,6 16 54 0,0
18.05.2018 17:00:00 12,4 7,4 - - 9 5 Z 1024,8 22 60 0,0
18.05.2018 16:00:00 13,3 7,8 - - 11 6 ZZW 1024,8 18 60 0,0
18.05.2018 15:00:00 13,3 8,0 - - 13 7 Z 1024,9 18 60 0,0
18.05.2018 14:00:00 14,3 7,5 - - 9 5 Z 1025,1 14 60 0,0
18.05.2018 13:00:00 13,5 6,9 - - 9 5 Z 1025,4 21 48 0,0
18.05.2018 12:00:00 14,3 6,8 - - 8 4 NO 1025,7 29 54 0,0
18.05.2018 11:00:00 13,1 6,3 - - 8 4 ONO 1025,9 16 54 0,0
18.05.2018 10:00:00 11,5 5,5 15,0 13,7 5 3 O 1026,2 26 42 0,0
18.05.2018 09:00:00 10,7 6,3 - - 11 6 O 1026,3 20 54 0,0
18.05.2018 08:00:00 8,1 5,7 - - 9 5 NNO 1026,5 20 54 0,0
18.05.2018 07:00:00 6,1 5,5 - - 8 4 NNO 1026,2 14 0 0,0
18.05.2018 06:00:00 4,4 3,9 - - 5 3 NNO 1026,0 10 0 0,0
18.05.2018 05:00:00 4,4 3,7 - - 5 3 NNO 1025,8 12 0 0,0
18.05.2018 04:00:00 5,1 4,6 - - 9 5 N 1026,0 11 0 0,0
18.05.2018 03:00:00 5,1 4,6 - - 5 3 N 1026,1 10 0 0,0
18.05.2018 02:00:00 5,2 4,6 - - 4 2 N 1026,3 11 0 0,0
18.05.2018 01:00:00 5,9 5,1 - - 4 2 NO 1026,4 11 - 0,0
18.05.2018 00:00:00 6,0 4,8 - - 4 2 NNO 1026,7 13 0 0,0
17.05.2018 23:00:00 7,2 5,0 - - 4 2 NO 1026,8 14 0 0,0
17.05.2018 22:00:00 8,7 5,3 - - 8 4 ONO 1026,6 16 0 0,0
17.05.2018 21:00:00 10,3 5,4 - - 8 4 ONO 1026,2 16 0 0,0
17.05.2018 20:00:00 12,9 5,6 - - 8 4 ONO 1025,7 23 48 0,0
17.05.2018 19:00:00 15,0 4,9 - - 13 7 ONO 1025,5 24 60 0,0
17.05.2018 18:00:00 15,7 5,4 - - 11 6 ONO 1025,3 22 60 0,0
17.05.2018 17:00:00 16,2 4,6 - - 13 7 ONO 1025,4 21 60 0,0
17.05.2018 16:00:00 16,5 4,8 - - 13 7 O 1025,7 29 60 0,0
17.05.2018 15:00:00 16,3 5,5 - - 11 6 ONO 1026,0 26 60 0,0
17.05.2018 14:00:00 15,0 4,8 - - 9 5 NO 1026,3 15 60 0,0
17.05.2018 13:00:00 13,9 4,2 - - 13 7 NNO 1026,7 24 60 0,0
17.05.2018 12:00:00 13,4 5,1 - - 15 8 ONO 1026,9 21 60 0,0
17.05.2018 11:00:00 12,3 4,8 - - 13 7 ONO 1027,1 23 60 0,0
17.05.2018 10:00:00 11,0 5,4 14,9 13,7 13 7 ONO 1026,8 15 60 0,0
17.05.2018 09:00:00 9,8 4,4 - - 13 7 NO 1026,8 14 60 0,0
17.05.2018 08:00:00 9,0 5,3 - - 13 7 NO 1026,6 11 48 0,0
17.05.2018 07:00:00 7,8 5,1 - - 9 5 NNO 1026,6 13 0 0,0
17.05.2018 06:00:00 7,2 4,7 - - 11 6 NNO 1026,5 13 0 0,0
17.05.2018 05:00:00 6,8 4,4 - - 11 6 NNO 1025,9 14 0 0,0
17.05.2018 04:00:00 7,1 4,6 - - 11 6 NNO 1025,9 15 0 0,0
17.05.2018 03:00:00 7,3 4,7 - - 11 6 NNO 1026,3 15 0 0,0
17.05.2018 02:00:00 7,6 4,7 - - 11 6 NO 1026,6 14 0 0,0
17.05.2018 01:00:00 8,0 5,0 - - 11 6 NO 1026,8 13 - 0,0
17.05.2018 00:00:00 8,6 5,2 - - 15 8 NNO 1026,9 14 0 0,0

tt = temperatuur
td = dauwpunt
tt -20cm = temperatuur -20cm
tt -100cm = temperatuur -100cm
ff = windsnelheid
dd = windrichting
ppp = luchtdruk
vv = zicht
sd = Zonneschijnduur
rr = neerslag

Weerstations in de omgeving